Вернуться в каталог

STARLINK-36443

АктивенСвязьVLEO
NORAD 67431·PAYLOAD·🇺🇸 United States

Запущен Jan 12, 2026 с Cape Canaveral Space Force Station

Loading…

Ближайшие Пролёты (ближайшие 24 часа)

TLE

СвежийSource: CelesTrak SupGP

Эпоха: Sep 14, 2026, 22:58 UTC

1 67431C 26005AD  26257.95743056  .00028960  00000+0  10492-2 0  2574
2 67431  42.9995 248.8517 0001248 260.8227 158.2721 15.27556904    19

Отслеживайте STARLINK-36443 в реальном времени с AllMySat

Download on the App Store